Regional Weather Roundup
Issued by NWS

Home | Current Version | Previous Version | Graphics & Text | Print | Product List | Glossary On
Versions: 1 2 3 4 5 6 7 8 9 10 11 12 13 14 15 16 17 18 19 20 21 22 23 24 25 26 27 28 29 30 31 32 33 34 35 36 37 38 39 40 41 42 43 44 45 46 47 48 49 50
000
ASUS43 KOAX 281610
RWRNE

WEATHER ROUNDUP FOR NEBRASKA
NATIONAL WEATHER SERVICE OMAHA NE
1100 AM CDT THU AUG 28 2014

NOTES: SATELLITE DATA IS BEING USED TO AUGMENT CLOUD COVER ABOVE
       12000 FEET.
       "FAIR" INDICATES FEW OR NO CLOUDS BELOW 12,000 FEET WITH NO
       SIGNIFICANT WEATHER AND/OR OBSTRUCTIONS TO VISIBILITY.

  * THESE STATIONS DO NOT REPORT WEATHER SUCH AS RAIN...SNOW OR FOG.

NEZ001>004-019>022-054>056-281700-
NEBRASKA PANHANDLE

CITY           SKY/WX    TMP DP  RH WIND       PRES   REMARKS
SCOTTSBLUFF    CLOUDY    64  60  87 W14       30.06S
ALLIANCE       LGT RAIN  63  61  93 NW7       30.02S FOG
CHADRON        LGT RAIN  65  62  90 NW6       30.03R
KIMBALL        CLOUDY    62  55  75 NW17      30.10R
SIDNEY         PTSUNNY   68  58  70 NW17      30.07S
$$

NEZ057>060-069>072-079>082-281700-
SOUTHWEST NEBRASKA

CITY           SKY/WX    TMP DP  RH WIND       PRES   REMARKS
NORTH PLATTE   MOSUNNY   74  64  71 W8        29.97S
IMPERIAL       MOSUNNY   70  62  76 N10       30.01R
LEXINGTON      PTSUNNY   71  66  82 CALM      29.94S
MCCOOK         SUNNY     74  64  71 W7        29.97S
OGALLALA       CLOUDY    67  62  83 NW5       30.00S
$$

NEZ005>010-023>029-035>040-094-281700-
NORTH CENTRAL NEBRASKA

CITY           SKY/WX    TMP DP  RH WIND       PRES   REMARKS
VALENTINE      CLOUDY    73  67  81 CALM      29.93S
AINSWORTH      CLOUDY    70  65  85 S5        29.94R
BROKEN BOW     MOSUNNY   72  67  84 SE3       29.93F
O`NEILL        PTSUNNY   74  69  83 S9        29.92F
ORD            CLOUDY    70  67  90 SE5       29.92F
THEDFORD       CLOUDY    72  65  77 CALM      29.96S
$$

NEZ041-046>049-061>064-073>077-083>087-281700-
SOUTH CENTRAL NEBRASKA

CITY           SKY/WX    TMP DP  RH WIND       PRES   REMARKS
GRAND ISLAND   CLOUDY    74  69  85 W3        29.93S
AURORA         PTSUNNY   77  71  82 SW9       29.92S
HASTINGS       CLOUDY    75  66  73 SW10      29.93R
HEBRON         MOSUNNY   79  66  64 S13       29.92S
HOLDREGE       CLOUDY    68  65  89 CALM      29.94F
KEARNEY *      CLOUDY    68  66  94 SW3       29.94S
YORK           MOSUNNY   77 N/A N/A S8        29.93R
$$

NEZ011>018-030>034-042>045-281700-
NORTHEAST NEBRASKA

CITY           SKY/WX    TMP DP  RH WIND       PRES   REMARKS
NORFOLK        CLOUDY    73  68  84 SE8       29.93S
ALBION         CLOUDY    69  67  93 SE6       29.93F
BLAIR          CLOUDY    74  70  87 SE13G20   29.95R
FREMONT        CLOUDY    74  71  89 SE7       29.94R
TEKAMAH        CLOUDY    73  70  90 SE9       29.94R
WAYNE          CLOUDY    74  70  87 S10       29.93S
$$

NEZ050>053-065>068-078-088>093-281700-
SOUTHEAST NEBRASKA

CITY           SKY/WX    TMP DP  RH WIND       PRES   REMARKS
LINCOLN        PTSUNNY   75  70  84 S16       29.91R
OMAHA EPPLEY   CLOUDY    75  70  84 SE17      29.94S
BEATRICE       CLOUDY    75  71  87 SE14G21   29.92F
FALLS CITY     CLOUDY    75  70  84 SE3       29.97F
NEBRASKA CITY  LGT RAIN  71  71 100 S10       29.95F
PLATTSMOUTH    CLOUDY    74  71  92 SE10G16   29.94S
$$

NEZ044-045-051>053-067-281700-
OMAHA AREA

CITY           SKY/WX    TMP DP  RH WIND       PRES   REMARKS
OMAHA EPPLEY   CLOUDY    75  70  84 SE17      29.94S
BLAIR          CLOUDY    74  70  87 SE13G20   29.95R
FREMONT        CLOUDY    74  71  89 SE7       29.94R
MILLARD        CLOUDY    75  71  88 SE13      29.93S
OFFUTT AFB     CLOUDY    74  74 100 SE14      29.93S
PLATTSMOUTH    CLOUDY    74  71  92 SE10G16   29.94S
WAHOO          CLOUDY    75  70  83 S9        29.94R
$$


USA.gov is the U.S. government's official web portal to all federal, state and local government web resources and services.